Time,TemperatureF,DewpointF,PressureIn,WindDirection,WindDirectionDegrees,WindSpeedMPH,WindSpeedGustMPH,Humidity,HourlyPrecipIn,Conditions,Clouds,dailyrainin,SoftwareType,DateUTC
2013-08-16 00:00:00,62.5,60.1,29.96,North,350,0.0,0.0,92,0.00,,,0.00,Wunderground v.1.15,2013-08-16 07:00:00,
2013-08-16 00:05:00,62.4,60.3,29.96,North,351,0.0,0.0,93,0.00,,,0.00,Wunderground v.1.15,2013-08-16 07:05:00,
2013-08-16 00:10:00,62.3,59.9,29.97,North,351,0.0,0.0,92,0.00,,,0.00,Wunderground v.1.15,2013-08-16 07:10:00,
2013-08-16 00:15:00,62.3,59.9,29.97,North,351,0.0,0.0,92,0.00,,,0.00,Wunderground v.1.15,2013-08-16 07:15:00,
2013-08-16 00:25:00,62.2,59.8,29.96,North,350,0.0,0.0,92,0.00,,,0.00,Wunderground v.1.15,2013-08-16 07:25:00,
2013-08-16 00:30:00,62.2,60.2,29.96,North,350,0.0,0.0,93,0.00,,,0.00,Wunderground v.1.15,2013-08-16 07:30:00,
2013-08-16 00:40:00,62.1,59.7,29.95,North,350,0.0,0.0,92,0.00,,,0.00,Wunderground v.1.15,2013-08-16 07:40:00,
2013-08-16 00:45:00,62.0,59.6,29.96,North,350,0.0,0.0,92,0.00,,,0.00,Wunderground v.1.15,2013-08-16 07:45:00,
2013-08-16 00:50:00,61.9,59.5,29.96,North,350,0.0,0.0,92,0.00,,,0.00,Wunderground v.1.15,2013-08-16 07:50:00,
2013-08-16 01:00:00,61.7,59.7,29.95,North,350,0.0,0.0,93,0.00,,,0.00,Wunderground v.1.15,2013-08-16 08:00:00,
2013-08-16 01:05:00,61.6,59.3,29.95,North,350,0.0,0.0,92,0.00,,,0.00,Wunderground v.1.15,2013-08-16 08:05:00,
2013-08-16 01:10:00,61.5,59.5,29.95,North,350,0.0,0.0,93,0.00,,,0.00,Wunderground v.1.15,2013-08-16 08:10:00,
2013-08-16 01:15:00,61.4,59.4,29.95,North,350,0.0,0.0,93,0.00,,,0.00,Wunderground v.1.15,2013-08-16 08:15:00,
2013-08-16 01:20:00,61.4,59.4,29.95,North,350,0.0,0.0,93,0.00,,,0.00,Wunderground v.1.15,2013-08-16 08:20:00,
2013-08-16 01:30:00,61.1,59.1,29.95,North,350,0.0,0.0,93,0.00,,,0.00,Wunderground v.1.15,2013-08-16 08:30:00,
2013-08-16 01:35:00,61.1,59.1,29.95,North,350,0.0,0.0,93,0.00,,,0.00,Wunderground v.1.15,2013-08-16 08:35:00,
2013-08-16 01:40:00,61.0,59.0,29.95,North,350,0.0,0.0,93,0.00,,,0.00,Wunderground v.1.15,2013-08-16 08:40:00,
2013-08-16 01:45:00,60.9,58.9,29.95,North,350,0.0,0.0,93,0.00,,,0.00,Wunderground v.1.15,2013-08-16 08:45:00,
2013-08-16 01:50:00,60.8,58.8,29.95,North,350,0.0,0.0,93,0.00,,,0.00,Wunderground v.1.15,2013-08-16 08:50:00,
2013-08-16 01:55:00,60.7,58.7,29.95,North,350,0.0,0.0,93,0.00,,,0.00,Wunderground v.1.15,2013-08-16 08:55:00,
2013-08-16 02:05:00,60.4,58.4,29.95,North,350,0.0,0.0,93,0.00,,,0.00,Wunderground v.1.15,2013-08-16 09:05:00,
2013-08-16 02:10:00,60.3,58.3,29.95,North,350,0.0,0.0,93,0.00,,,0.00,Wunderground v.1.15,2013-08-16 09:10:00,
2013-08-16 02:20:00,60.2,58.5,29.95,North,350,0.0,0.0,94,0.00,,,0.00,Wunderground v.1.15,2013-08-16 09:20:00,
2013-08-16 02:25:00,60.1,58.4,29.95,North,350,0.0,0.0,94,0.00,,,0.00,Wunderground v.1.15,2013-08-16 09:25:00,
2013-08-16 02:30:00,60.0,58.3,29.94,North,350,0.0,0.0,94,0.00,,,0.00,Wunderground v.1.15,2013-08-16 09:30:00,
2013-08-16 02:35:00,59.9,58.2,29.94,North,350,0.0,0.0,94,0.00,,,0.00,Wunderground v.1.15,2013-08-16 09:35:00,
2013-08-16 02:45:00,59.9,58.5,29.94,North,350,0.0,0.0,95,0.00,,,0.00,Wunderground v.1.15,2013-08-16 09:45:00,
2013-08-16 02:50:00,59.8,58.4,29.94,North,350,0.0,0.0,95,0.00,,,0.00,Wunderground v.1.15,2013-08-16 09:50:00,
2013-08-16 02:55:00,59.7,58.0,29.94,North,350,0.0,0.0,94,0.00,,,0.00,Wunderground v.1.15,2013-08-16 09:55:00,
2013-08-16 03:00:00,59.6,58.2,29.94,North,350,0.0,0.0,95,0.00,,,0.00,Wunderground v.1.15,2013-08-16 10:00:00,
2013-08-16 03:05:00,59.8,58.7,29.94,North,350,0.0,0.0,96,0.00,,,0.00,Wunderground v.1.15,2013-08-16 10:05:00,
2013-08-16 03:10:00,59.9,58.8,29.94,North,350,0.0,0.0,96,0.00,,,0.00,Wunderground v.1.15,2013-08-16 10:10:00,
2013-08-16 03:20:00,60.0,58.6,29.94,North,350,0.0,0.0,95,0.00,,,0.00,Wunderground v.1.15,2013-08-16 10:20:00,
2013-08-16 03:25:00,59.9,58.5,29.94,North,350,0.0,0.0,95,0.00,,,0.00,Wunderground v.1.15,2013-08-16 10:25:00,
2013-08-16 03:30:00,59.9,58.8,29.95,North,350,0.0,0.0,96,0.00,,,0.00,Wunderground v.1.15,2013-08-16 10:30:00,
2013-08-16 03:40:00,60.0,58.6,29.95,North,350,0.0,0.0,95,0.00,,,0.00,Wunderground v.1.15,2013-08-16 10:40:00,
2013-08-16 03:45:00,59.9,58.8,29.94,North,350,0.0,0.0,96,0.00,,,0.00,Wunderground v.1.15,2013-08-16 10:45:00,
2013-08-16 03:50:00,59.8,58.7,29.94,North,350,0.0,0.0,96,0.00,,,0.00,Wunderground v.1.15,2013-08-16 10:50:00,
2013-08-16 03:55:00,59.8,58.7,29.94,North,350,0.0,0.0,96,0.00,,,0.00,Wunderground v.1.15,2013-08-16 10:55:00,
2013-08-16 04:05:00,59.7,58.6,29.94,North,350,0.0,0.0,96,0.00,,,0.00,Wunderground v.1.15,2013-08-16 11:05:00,
2013-08-16 04:10:00,59.7,58.6,29.94,North,350,0.0,0.0,96,0.00,,,0.00,Wunderground v.1.15,2013-08-16 11:10:00,
2013-08-16 04:15:00,59.6,58.2,29.94,North,350,0.0,0.0,95,0.00,,,0.00,Wunderground v.1.15,2013-08-16 11:15:00,
2013-08-16 04:20:00,59.6,58.5,29.94,North,350,0.0,0.0,96,0.00,,,0.00,Wunderground v.1.15,2013-08-16 11:20:00,
2013-08-16 04:30:00,59.7,58.6,29.94,North,350,0.0,0.0,96,0.00,,,0.00,Wunderground v.1.15,2013-08-16 11:30:00,
2013-08-16 04:35:00,59.6,58.5,29.95,North,350,0.0,0.0,96,0.00,,,0.00,Wunderground v.1.15,2013-08-16 11:35:00,
2013-08-16 04:40:00,59.6,58.5,29.95,North,350,0.0,0.0,96,0.00,,,0.00,Wunderground v.1.15,2013-08-16 11:40:00,
2013-08-16 04:50:00,59.5,58.4,29.95,North,355,0.0,0.0,96,0.00,,,0.00,Wunderground v.1.15,2013-08-16 11:50:00,
2013-08-16 04:55:00,59.6,58.5,29.95,North,355,0.0,0.0,96,0.00,,,0.00,Wunderground v.1.15,2013-08-16 11:55:00,
2013-08-16 05:05:00,59.5,58.4,29.95,North,355,0.0,0.0,96,0.00,,,0.00,Wunderground v.1.15,2013-08-16 12:05:00,
2013-08-16 05:10:00,59.5,58.4,29.95,North,355,0.0,0.0,96,0.00,,,0.00,Wunderground v.1.15,2013-08-16 12:10:00,
2013-08-16 05:15:00,59.4,58.3,29.95,North,355,0.0,0.0,96,0.00,,,0.00,Wunderground v.1.15,2013-08-16 12:15:00,
2013-08-16 05:20:00,59.5,58.6,29.95,North,355,0.0,0.0,97,0.00,,,0.00,Wunderground v.1.15,2013-08-16 12:20:00,
2013-08-16 05:30:00,59.7,58.8,29.95,North,355,0.0,0.0,97,0.00,,,0.00,Wunderground v.1.15,2013-08-16 12:30:00,
2013-08-16 05:35:00,59.7,58.8,29.95,North,355,0.0,0.0,97,0.00,,,0.00,Wunderground v.1.15,2013-08-16 12:35:00,
2013-08-16 05:40:00,59.7,58.8,29.95,North,355,0.0,0.0,97,0.00,,,0.00,Wunderground v.1.15,2013-08-16 12:40:00,
2013-08-16 05:45:00,59.6,58.5,29.95,North,355,0.0,0.0,96,0.00,,,0.00,Wunderground v.1.15,2013-08-16 12:45:00,
2013-08-16 05:55:00,59.5,58.6,29.95,North,355,0.0,0.0,97,0.00,,,0.00,Wunderground v.1.15,2013-08-16 12:55:00,
2013-08-16 06:00:00,59.4,58.3,29.95,North,355,0.0,0.0,96,0.00,,,0.00,Wunderground v.1.15,2013-08-16 13:00:00,
2013-08-16 06:05:00,59.4,58.5,29.95,North,355,0.0,0.0,97,0.00,,,0.00,Wunderground v.1.15,2013-08-16 13:05:00,
2013-08-16 06:10:00,59.3,58.4,29.95,North,355,0.0,0.0,97,0.00,,,0.00,Wunderground v.1.15,2013-08-16 13:10:00,
2013-08-16 06:15:00,59.2,58.3,29.96,North,355,0.0,0.0,97,0.00,,,0.00,Wunderground v.1.15,2013-08-16 13:15:00,
2013-08-16 06:25:00,59.5,58.6,29.96,North,355,0.0,0.0,97,0.00,,,0.00,Wunderground v.1.15,2013-08-16 13:25:00,
2013-08-16 06:30:00,59.6,58.7,29.96,North,355,0.0,0.0,97,0.00,,,0.00,Wunderground v.1.15,2013-08-16 13:30:00,
2013-08-16 06:35:00,59.6,58.7,29.96,North,355,0.0,0.0,97,0.00,,,0.00,Wunderground v.1.15,2013-08-16 13:35:00,
2013-08-16 06:45:00,59.2,58.1,29.96,North,355,0.0,0.0,96,0.00,,,0.00,Wunderground v.1.15,2013-08-16 13:45:00,
2013-08-16 06:50:00,59.3,58.4,29.96,North,355,0.0,0.0,97,0.00,,,0.00,Wunderground v.1.15,2013-08-16 13:50:00,
2013-08-16 06:55:00,59.3,58.4,29.96,North,355,0.0,0.0,97,0.00,,,0.00,Wunderground v.1.15,2013-08-16 13:55:00,
2013-08-16 07:00:00,59.3,58.4,29.96,North,355,0.0,0.0,97,0.00,,,0.00,Wunderground v.1.15,2013-08-16 14:00:00,
2013-08-16 07:10:00,59.5,58.6,29.96,North,355,0.0,0.0,97,0.00,,,0.00,Wunderground v.1.15,2013-08-16 14:10:00,
2013-08-16 07:20:00,60.1,59.5,29.97,North,355,0.0,0.0,98,0.00,,,0.00,Wunderground v.1.15,2013-08-16 14:20:00,
2013-08-16 07:25:00,60.4,59.8,29.97,North,355,0.0,0.0,98,0.00,,,0.00,Wunderground v.1.15,2013-08-16 14:25:00,
2013-08-16 07:35:00,60.6,60.0,29.97,North,355,0.0,0.0,98,0.00,,,0.00,Wunderground v.1.15,2013-08-16 14:35:00,
2013-08-16 07:40:00,60.9,60.3,29.97,North,355,0.0,0.0,98,0.00,,,0.00,Wunderground v.1.15,2013-08-16 14:40:00,
2013-08-16 07:50:00,61.6,61.0,29.97,North,355,0.0,0.0,98,0.00,,,0.00,Wunderground v.1.15,2013-08-16 14:50:00,
2013-08-16 07:55:00,61.7,60.8,29.97,North,355,0.0,0.0,97,0.00,,,0.00,Wunderground v.1.15,2013-08-16 14:55:00,
2013-08-16 08:00:00,62.0,61.1,29.97,North,355,0.0,0.0,97,0.00,,,0.00,Wunderground v.1.15,2013-08-16 15:00:00,
2013-08-16 08:05:00,62.2,61.3,29.97,North,355,0.0,0.0,97,0.00,,,0.00,Wunderground v.1.15,2013-08-16 15:05:00,
2013-08-16 08:10:00,62.4,61.2,29.97,North,355,0.0,0.0,96,0.00,,,0.00,Wunderground v.1.15,2013-08-16 15:10:00,
2013-08-16 08:20:00,63.2,61.7,29.97,North,355,0.0,1.0,95,0.00,,,0.00,Wunderground v.1.15,2013-08-16 15:20:00,
2013-08-16 08:25:00,63.8,62.0,29.98,SE,128,0.0,1.0,94,0.00,,,0.00,Wunderground v.1.15,2013-08-16 15:25:00,
2013-08-16 08:30:00,64.3,62.2,29.98,SE,128,0.0,0.0,93,0.00,,,0.00,Wunderground v.1.15,2013-08-16 15:30:00,
2013-08-16 08:35:00,64.9,62.2,29.98,SE,128,0.0,0.0,91,0.00,,,0.00,Wunderground v.1.15,2013-08-16 15:35:00,
2013-08-16 08:40:00,65.3,62.3,29.98,SE,124,0.0,0.0,90,0.00,,,0.00,Wunderground v.1.15,2013-08-16 15:40:00,
2013-08-16 08:45:00,65.8,62.5,29.98,SE,125,0.0,0.0,89,0.00,,,0.00,Wunderground v.1.15,2013-08-16 15:45:00,
2013-08-16 08:50:00,66.3,63.0,29.98,ESE,123,0.0,0.0,89,0.00,,,0.00,Wunderground v.1.15,2013-08-16 15:50:00,
2013-08-16 09:00:00,67.3,63.0,29.98,ESE,123,0.0,0.0,86,0.00,,,0.00,Wunderground v.1.15,2013-08-16 16:00:00,
2013-08-16 09:05:00,67.8,63.5,29.98,ESE,123,0.0,0.0,86,0.00,,,0.00,Wunderground v.1.15,2013-08-16 16:05:00,
2013-08-16 09:10:00,68.5,63.5,29.98,SE,125,0.0,0.0,84,0.00,,,0.00,Wunderground v.1.15,2013-08-16 16:10:00,
2013-08-16 09:15:00,69.2,63.5,29.98,SE,128,0.0,0.0,82,0.00,,,0.00,Wunderground v.1.15,2013-08-16 16:15:00,
2013-08-16 09:20:00,69.7,63.6,29.98,SE,128,0.0,0.0,81,0.00,,,0.00,Wunderground v.1.15,2013-08-16 16:20:00,
2013-08-16 09:25:00,70.5,63.3,29.97,East,97,0.0,0.0,78,0.00,,,0.00,Wunderground v.1.15,2013-08-16 16:25:00,
2013-08-16 09:30:00,71.1,63.9,29.97,WSW,249,0.0,1.0,78,0.00,,,0.00,Wunderground v.1.15,2013-08-16 16:30:00,
2013-08-16 09:35:00,72.1,63.4,29.97,West,269,0.0,3.0,74,0.00,,,0.00,Wunderground v.1.15,2013-08-16 16:35:00,
2013-08-16 09:40:00,72.8,64.0,29.97,West,260,1.0,1.0,74,0.00,,,0.00,Wunderground v.1.15,2013-08-16 16:40:00,
2013-08-16 09:45:00,73.6,63.6,29.97,WSW,246,1.0,2.0,71,0.00,,,0.00,Wunderground v.1.15,2013-08-16 16:45:00,
2013-08-16 09:55:00,74.6,64.2,29.98,South,186,1.0,1.0,70,0.00,,,0.00,Wunderground v.1.15,2013-08-16 16:55:00,
2013-08-16 10:00:00,75.3,64.0,29.98,SSE,165,0.0,0.0,68,0.00,,,0.00,Wunderground v.1.15,2013-08-16 17:00:00,
2013-08-16 10:05:00,75.4,62.4,29.98,WNW,296,1.0,3.0,64,0.00,,,0.00,Wunderground v.1.15,2013-08-16 17:05:00,
2013-08-16 10:10:00,75.3,62.3,29.98,WNW,300,2.0,2.0,64,0.00,,,0.00,Wunderground v.1.15,2013-08-16 17:10:00,
2013-08-16 10:15:00,75.7,62.2,29.98,WNW,291,1.0,2.0,63,0.00,,,0.00,Wunderground v.1.15,2013-08-16 17:15:00,
2013-08-16 10:20:00,76.3,62.3,29.98,WNW,302,1.0,1.0,62,0.00,,,0.00,Wunderground v.1.15,2013-08-16 17:20:00,
2013-08-16 10:25:00,76.6,61.2,29.98,WNW,302,1.0,4.0,59,0.00,,,0.00,Wunderground v.1.15,2013-08-16 17:25:00,
2013-08-16 10:30:00,76.7,61.3,29.98,WNW,292,2.0,2.0,59,0.00,,,0.00,Wunderground v.1.15,2013-08-16 17:30:00,
2013-08-16 10:35:00,76.6,61.2,29.98,WSW,257,2.0,2.0,59,0.00,,,0.00,Wunderground v.1.15,2013-08-16 17:35:00,
2013-08-16 10:40:00,77.4,61.0,29.98,West,260,2.0,2.0,57,0.00,,,0.00,Wunderground v.1.15,2013-08-16 17:40:00,
2013-08-16 10:45:00,77.8,61.3,29.98,SW,227,1.0,3.0,57,0.00,,,0.00,Wunderground v.1.15,2013-08-16 17:45:00,
2013-08-16 10:50:00,78.0,61.0,29.98,WNW,282,2.0,2.0,56,0.00,,,0.00,Wunderground v.1.15,2013-08-16 17:50:00,
2013-08-16 10:55:00,78.7,61.7,29.98,West,281,1.0,2.0,56,0.00,,,0.00,Wunderground v.1.15,2013-08-16 17:55:00,
2013-08-16 11:05:00,79.2,60.1,29.98,WSW,252,1.0,1.0,52,0.00,,,0.00,Wunderground v.1.15,2013-08-16 18:05:00,
2013-08-16 11:15:00,80.0,60.8,29.98,NW,314,1.0,4.0,52,0.00,,,0.00,Wunderground v.1.15,2013-08-16 18:15:00,
2013-08-16 11:20:00,80.2,59.9,29.98,NW,306,1.0,1.0,50,0.00,,,0.00,Wunderground v.1.15,2013-08-16 18:20:00,
2013-08-16 11:30:00,81.2,60.8,29.98,South,186,1.0,1.0,50,0.00,,,0.00,Wunderground v.1.15,2013-08-16 18:30:00,
2013-08-16 11:35:00,81.5,60.5,29.98,NW,315,1.0,1.0,49,0.00,,,0.00,Wunderground v.1.15,2013-08-16 18:35:00,
2013-08-16 11:40:00,81.9,60.3,29.98,NNW,341,1.0,4.0,48,0.00,,,0.00,Wunderground v.1.15,2013-08-16 18:40:00,
2013-08-16 11:45:00,81.2,59.6,29.98,West,263,2.0,4.0,48,0.00,,,0.00,Wunderground v.1.15,2013-08-16 18:45:00,
2013-08-16 11:50:00,81.4,60.4,29.98,West,277,2.0,2.0,49,0.00,,,0.00,Wunderground v.1.15,2013-08-16 18:50:00,
2013-08-16 11:55:00,82.2,60.0,29.98,WNW,284,2.0,3.0,47,0.00,,,0.00,Wunderground v.1.15,2013-08-16 18:55:00,
2013-08-16 12:00:00,82.3,60.1,29.98,WSW,242,2.0,2.0,47,0.00,,,0.00,Wunderground v.1.15,2013-08-16 19:00:00,
2013-08-16 12:05:00,82.1,59.9,29.98,West,275,2.0,2.0,47,0.00,,,0.00,Wunderground v.1.15,2013-08-16 19:05:00,
2013-08-16 12:15:00,82.5,60.2,29.98,SW,225,2.0,4.0,47,0.00,,,0.00,Wunderground v.1.15,2013-08-16 19:15:00,
2013-08-16 12:20:00,82.7,60.4,29.98,WSW,242,1.0,1.0,47,0.00,,,0.00,Wunderground v.1.15,2013-08-16 19:20:00,
2013-08-16 12:25:00,83.1,60.2,29.98,WSW,252,2.0,2.0,46,0.00,,,0.00,Wunderground v.1.15,2013-08-16 19:25:00,
2013-08-16 12:30:00,83.0,59.5,29.98,WSW,257,2.0,2.0,45,0.00,,,0.00,Wunderground v.1.15,2013-08-16 19:30:00,
2013-08-16 12:35:00,83.0,60.1,29.98,ENE,76,2.0,2.0,46,0.00,,,0.00,Wunderground v.1.15,2013-08-16 19:35:00,
2013-08-16 12:40:00,83.7,60.1,29.98,ESE,105,1.0,1.0,45,0.00,,,0.00,Wunderground v.1.15,2013-08-16 19:40:00,
2013-08-16 12:50:00,84.7,60.4,29.98,West,262,1.0,1.0,44,0.00,,,0.00,Wunderground v.1.15,2013-08-16 19:50:00,
2013-08-16 12:55:00,85.4,58.3,29.98,NW,319,1.0,1.0,40,0.00,,,0.00,Wunderground v.1.15,2013-08-16 19:55:00,
2013-08-16 13:00:00,85.1,58.1,29.98,South,190,2.0,2.0,40,0.00,,,0.00,Wunderground v.1.15,2013-08-16 20:00:00,
2013-08-16 13:05:00,84.7,58.4,29.98,WSW,249,2.0,4.0,41,0.00,,,0.00,Wunderground v.1.15,2013-08-16 20:05:00,
2013-08-16 13:10:00,84.7,59.7,29.98,WSW,248,2.0,2.0,43,0.00,,,0.00,Wunderground v.1.15,2013-08-16 20:10:00,
2013-08-16 13:15:00,84.7,60.4,29.97,North,350,2.0,2.0,44,0.00,,,0.00,Wunderground v.1.15,2013-08-16 20:15:00,
2013-08-16 13:25:00,85.2,59.5,29.97,NW,317,1.0,3.0,42,0.00,,,0.00,Wunderground v.1.15,2013-08-16 20:25:00,
2013-08-16 13:30:00,84.3,60.6,29.97,SW,227,2.0,2.0,45,0.00,,,0.00,Wunderground v.1.15,2013-08-16 20:30:00,
2013-08-16 13:35:00,85.0,61.3,29.97,WSW,250,2.0,2.0,45,0.00,,,0.00,Wunderground v.1.15,2013-08-16 20:35:00,
2013-08-16 13:40:00,86.2,61.1,29.97,West,265,1.0,2.0,43,0.00,,,0.00,Wunderground v.1.15,2013-08-16 20:40:00,
2013-08-16 13:45:00,87.3,61.4,29.97,SE,133,1.0,2.0,42,0.00,,,0.00,Wunderground v.1.15,2013-08-16 20:45:00,
2013-08-16 13:50:00,87.3,61.4,29.97,South,173,1.0,1.0,42,0.00,,,0.00,Wunderground v.1.15,2013-08-16 20:50:00,
2013-08-16 14:00:00,87.2,60.6,29.97,SSE,165,1.0,1.0,41,0.00,,,0.00,Wunderground v.1.15,2013-08-16 21:00:00,
2013-08-16 14:05:00,87.4,60.1,29.97,WSW,249,1.0,1.0,40,0.00,,,0.00,Wunderground v.1.15,2013-08-16 21:05:00,
2013-08-16 14:10:00,87.0,59.8,29.97,West,277,1.0,1.0,40,0.00,,,0.00,Wunderground v.1.15,2013-08-16 21:10:00,
2013-08-16 14:20:00,86.8,60.3,29.97,SSE,165,1.0,1.0,41,0.00,,,0.00,Wunderground v.1.15,2013-08-16 21:20:00,
2013-08-16 14:25:00,86.6,60.1,29.97,NNW,329,1.0,1.0,41,0.00,,,0.00,Wunderground v.1.15,2013-08-16 21:25:00,
2013-08-16 14:30:00,86.6,59.4,29.97,West,261,1.0,2.0,40,0.00,,,0.00,Wunderground v.1.15,2013-08-16 21:30:00,
2013-08-16 14:35:00,87.0,59.0,29.97,WNW,297,1.0,2.0,39,0.00,,,0.00,Wunderground v.1.15,2013-08-16 21:35:00,
2013-08-16 14:45:00,87.2,59.2,29.96,West,267,1.0,3.0,39,0.00,,,0.00,Wunderground v.1.15,2013-08-16 21:45:00,
2013-08-16 14:50:00,87.5,58.8,29.96,NW,306,1.0,1.0,38,0.00,,,0.00,Wunderground v.1.15,2013-08-16 21:50:00,
2013-08-16 14:55:00,87.7,58.9,29.96,West,267,1.0,2.0,38,0.00,,,0.00,Wunderground v.1.15,2013-08-16 21:55:00,
2013-08-16 15:05:00,87.3,58.6,29.96,SE,132,1.0,1.0,38,0.00,,,0.00,Wunderground v.1.15,2013-08-16 22:05:00,
2013-08-16 15:10:00,86.8,58.9,29.96,NNW,333,1.0,1.0,39,0.00,,,0.00,Wunderground v.1.15,2013-08-16 22:10:00,
2013-08-16 15:15:00,86.2,58.3,29.96,WSW,245,2.0,2.0,39,0.00,,,0.00,Wunderground v.1.15,2013-08-16 22:15:00,
2013-08-16 15:25:00,85.9,58.1,29.96,WSW,254,2.0,2.0,39,0.00,,,0.00,Wunderground v.1.15,2013-08-16 22:25:00,
2013-08-16 15:30:00,85.8,58.0,29.96,WSW,255,1.0,1.0,39,0.00,,,0.00,Wunderground v.1.15,2013-08-16 22:30:00,
2013-08-16 15:35:00,85.7,57.9,29.96,West,259,1.0,1.0,39,0.00,,,0.00,Wunderground v.1.15,2013-08-16 22:35:00,
2013-08-16 15:45:00,86.4,57.8,29.96,West,264,1.0,4.0,38,0.00,,,0.00,Wunderground v.1.15,2013-08-16 22:45:00,
2013-08-16 15:50:00,86.6,58.0,29.95,WSW,246,1.0,1.0,38,0.00,,,0.00,Wunderground v.1.15,2013-08-16 22:50:00,
2013-08-16 15:55:00,86.8,58.1,29.95,WSW,251,1.0,1.0,38,0.00,,,0.00,Wunderground v.1.15,2013-08-16 22:55:00,
2013-08-16 16:00:00,86.4,57.8,29.95,WSW,252,2.0,2.0,38,0.00,,,0.00,Wunderground v.1.15,2013-08-16 23:00:00,
2013-08-16 16:05:00,85.7,57.2,29.95,WSW,248,2.0,2.0,38,0.00,,,0.00,Wunderground v.1.15,2013-08-16 23:05:00,
2013-08-16 16:15:00,85.4,56.9,29.95,West,270,1.0,1.0,38,0.00,,,0.00,Wunderground v.1.15,2013-08-16 23:15:00,
2013-08-16 16:20:00,85.2,56.7,29.95,WSW,257,1.0,1.0,38,0.00,,,0.00,Wunderground v.1.15,2013-08-16 23:20:00,
2013-08-16 16:30:00,85.0,56.5,29.95,WSW,257,1.0,1.0,38,0.00,,,0.00,Wunderground v.1.15,2013-08-16 23:30:00,
2013-08-16 16:35:00,85.1,56.6,29.95,West,263,1.0,3.0,38,0.00,,,0.00,Wunderground v.1.15,2013-08-16 23:35:00,
2013-08-16 16:40:00,84.7,56.3,29.95,West,273,1.0,2.0,38,0.00,,,0.00,Wunderground v.1.15,2013-08-16 23:40:00,
2013-08-16 16:45:00,84.3,56.6,29.95,SW,218,1.0,2.0,39,0.00,,,0.00,Wunderground v.1.15,2013-08-16 23:45:00,
2013-08-16 16:55:00,84.8,56.4,29.94,WSW,252,1.0,2.0,38,0.00,,,0.00,Wunderground v.1.15,2013-08-16 23:55:00,
2013-08-16 17:00:00,85.0,55.8,29.94,WSW,240,1.0,1.0,37,0.00,,,0.00,Wunderground v.1.15,2013-08-17 00:00:00,
2013-08-16 17:05:00,85.3,56.1,29.94,SSE,161,0.0,1.0,37,0.00,,,0.00,Wunderground v.1.15,2013-08-17 00:05:00,
2013-08-16 17:10:00,85.0,55.1,29.94,West,276,1.0,3.0,36,0.00,,,0.00,Wunderground v.1.15,2013-08-17 00:10:00,
2013-08-16 17:15:00,84.4,55.3,29.94,WNW,292,1.0,3.0,37,0.00,,,0.00,Wunderground v.1.15,2013-08-17 00:15:00,
2013-08-16 17:25:00,83.7,53.9,29.94,SSE,162,1.0,1.0,36,0.00,,,0.00,Wunderground v.1.15,2013-08-17 00:25:00,
2013-08-16 17:30:00,83.3,54.3,29.94,West,259,1.0,2.0,37,0.00,,,0.00,Wunderground v.1.15,2013-08-17 00:30:00,
2013-08-16 17:40:00,82.4,53.5,29.94,WNW,290,1.0,1.0,37,0.00,,,0.00,Wunderground v.1.15,2013-08-17 00:40:00,
2013-08-16 17:45:00,82.3,54.9,29.94,WSW,258,0.0,1.0,39,0.00,,,0.00,Wunderground v.1.15,2013-08-17 00:45:00,
2013-08-16 17:50:00,81.8,55.8,29.94,SW,226,1.0,1.0,41,0.00,,,0.00,Wunderground v.1.15,2013-08-17 00:50:00,
2013-08-16 17:55:00,81.6,56.9,29.94,West,260,1.0,1.0,43,0.00,,,0.00,Wunderground v.1.15,2013-08-17 00:55:00,
2013-08-16 18:05:00,80.6,57.3,29.94,West,259,1.0,5.0,45,0.00,,,0.00,Wunderground v.1.15,2013-08-17 01:05:00,
2013-08-16 18:10:00,79.8,56.6,29.94,WSW,252,2.0,2.0,45,0.00,,,0.00,Wunderground v.1.15,2013-08-17 01:10:00,
2013-08-16 18:15:00,79.1,56.5,29.94,SW,235,2.0,2.0,46,0.00,,,0.00,Wunderground v.1.15,2013-08-17 01:15:00,
2013-08-16 18:20:00,78.7,56.8,29.94,WSW,240,2.0,2.0,47,0.00,,,0.00,Wunderground v.1.15,2013-08-17 01:20:00,
2013-08-16 18:30:00,78.2,56.9,29.94,WNW,289,2.0,2.0,48,0.00,,,0.00,Wunderground v.1.15,2013-08-17 01:30:00,
2013-08-16 18:35:00,78.1,56.2,29.94,West,265,2.0,2.0,47,0.00,,,0.00,Wunderground v.1.15,2013-08-17 01:35:00,
2013-08-16 18:45:00,78.1,56.8,29.94,WSW,250,1.0,1.0,48,0.00,,,0.00,Wunderground v.1.15,2013-08-17 01:45:00,
2013-08-16 18:50:00,78.2,56.3,29.94,NW,313,0.0,0.0,47,0.00,,,0.00,Wunderground v.1.15,2013-08-17 01:50:00,
2013-08-16 18:55:00,77.9,56.6,29.94,NW,305,1.0,1.0,48,0.00,,,0.00,Wunderground v.1.15,2013-08-17 01:55:00,
2013-08-16 19:00:00,77.3,56.6,29.94,NW,312,1.0,1.0,49,0.00,,,0.00,Wunderground v.1.15,2013-08-17 02:00:00,
2013-08-16 19:10:00,76.4,56.9,29.94,NNW,329,0.0,0.0,51,0.00,,,0.00,Wunderground v.1.15,2013-08-17 02:10:00,
2013-08-16 19:15:00,75.7,57.9,29.94,WNW,298,0.0,0.0,54,0.00,,,0.00,Wunderground v.1.15,2013-08-17 02:15:00,
2013-08-16 19:20:00,75.0,57.7,29.94,WSW,253,0.0,0.0,55,0.00,,,0.00,Wunderground v.1.15,2013-08-17 02:20:00,
2013-08-16 19:25:00,74.2,58.5,29.94,WSW,252,1.0,1.0,58,0.00,,,0.00,Wunderground v.1.15,2013-08-17 02:25:00,
2013-08-16 19:30:00,73.6,58.4,29.95,West,259,0.0,0.0,59,0.00,,,0.00,Wunderground v.1.15,2013-08-17 02:30:00,
2013-08-16 19:40:00,72.5,58.3,29.94,WSW,257,1.0,1.0,61,0.00,,,0.00,Wunderground v.1.15,2013-08-17 02:40:00,
2013-08-16 19:45:00,72.1,58.4,29.94,WSW,257,0.0,1.0,62,0.00,,,0.00,Wunderground v.1.15,2013-08-17 02:45:00,
2013-08-16 19:50:00,71.7,58.4,29.94,West,273,0.0,0.0,63,0.00,,,0.00,Wunderground v.1.15,2013-08-17 02:50:00,
2013-08-16 20:00:00,70.7,58.4,29.94,NW,312,0.0,0.0,65,0.00,,,0.00,Wunderground v.1.15,2013-08-17 03:00:00,
2013-08-16 20:05:00,70.3,58.0,29.95,NW,312,0.0,0.0,65,0.00,,,0.00,Wunderground v.1.15,2013-08-17 03:05:00,
2013-08-16 20:10:00,69.9,58.0,29.94,NW,312,0.0,0.0,66,0.00,,,0.00,Wunderground v.1.15,2013-08-17 03:10:00,
2013-08-16 20:15:00,69.5,58.1,29.94,NW,312,0.0,0.0,67,0.00,,,0.00,Wunderground v.1.15,2013-08-17 03:15:00,
2013-08-16 20:25:00,68.8,57.8,29.94,NW,312,0.0,0.0,68,0.00,,,0.00,Wunderground v.1.15,2013-08-17 03:25:00,
2013-08-16 20:30:00,68.6,57.6,29.94,NW,312,0.0,1.0,68,0.00,,,0.00,Wunderground v.1.15,2013-08-17 03:30:00,
2013-08-16 20:35:00,68.4,57.8,29.95,NW,313,0.0,1.0,69,0.00,,,0.00,Wunderground v.1.15,2013-08-17 03:35:00,
2013-08-16 20:45:00,67.9,57.8,29.95,West,281,0.0,1.0,70,0.00,,,0.00,Wunderground v.1.15,2013-08-17 03:45:00,
2013-08-16 20:50:00,67.7,57.6,29.95,NW,312,0.0,2.0,70,0.00,,,0.00,Wunderground v.1.15,2013-08-17 03:50:00,
2013-08-16 20:55:00,67.4,57.7,29.95,NW,316,0.0,2.0,71,0.00,,,0.00,Wunderground v.1.15,2013-08-17 03:55:00,
2013-08-16 21:05:00,67.0,57.3,29.95,NW,313,0.0,0.0,71,0.00,,,0.00,Wunderground v.1.15,2013-08-17 04:05:00,
2013-08-16 21:10:00,66.8,57.1,29.95,NW,315,0.0,0.0,71,0.00,,,0.00,Wunderground v.1.15,2013-08-17 04:10:00,
2013-08-16 21:15:00,66.6,56.9,29.95,NW,315,0.0,0.0,71,0.00,,,0.00,Wunderground v.1.15,2013-08-17 04:15:00,
2013-08-16 21:20:00,66.4,56.7,29.95,NW,315,0.0,0.0,71,0.00,,,0.00,Wunderground v.1.15,2013-08-17 04:20:00,
2013-08-16 21:25:00,66.1,56.8,29.95,NW,315,0.0,0.0,72,0.00,,,0.00,Wunderground v.1.15,2013-08-17 04:25:00,
2013-08-16 21:30:00,65.8,56.5,29.96,NW,315,0.0,0.0,72,0.00,,,0.00,Wunderground v.1.15,2013-08-17 04:30:00,
2013-08-16 21:40:00,65.3,56.4,29.96,NW,315,0.0,0.0,73,0.00,,,0.00,Wunderground v.1.15,2013-08-17 04:40:00,
2013-08-16 21:50:00,64.9,56.0,29.96,NW,315,0.0,0.0,73,0.00,,,0.00,Wunderground v.1.15,2013-08-17 04:50:00,
2013-08-16 21:55:00,64.7,56.2,29.96,NW,315,0.0,0.0,74,0.00,,,0.00,Wunderground v.1.15,2013-08-17 04:55:00,
2013-08-16 22:00:00,64.6,56.1,29.96,NW,315,0.0,0.0,74,0.00,,,0.00,Wunderground v.1.15,2013-08-17 05:00:00,
2013-08-16 22:05:00,64.3,56.2,29.96,NW,316,0.0,0.0,75,0.00,,,0.00,Wunderground v.1.15,2013-08-17 05:05:00,
2013-08-16 22:10:00,63.9,56.2,29.96,NW,317,0.0,0.0,76,0.00,,,0.00,Wunderground v.1.15,2013-08-17 05:10:00,
2013-08-16 22:20:00,63.1,56.1,29.96,NW,314,0.0,0.0,78,0.00,,,0.00,Wunderground v.1.15,2013-08-17 05:20:00,
2013-08-16 22:25:00,62.7,56.1,29.96,NW,314,0.0,0.0,79,0.00,,,0.00,Wunderground v.1.15,2013-08-17 05:25:00,
2013-08-16 22:35:00,62.0,55.8,29.96,NW,314,0.0,0.0,80,0.00,,,0.00,Wunderground v.1.15,2013-08-17 05:35:00,
2013-08-16 22:40:00,61.7,55.8,29.96,WNW,294,0.0,0.0,81,0.00,,,0.00,Wunderground v.1.15,2013-08-17 05:40:00,
2013-08-16 22:45:00,61.4,55.5,29.96,SSE,160,0.0,0.0,81,0.00,,,0.00,Wunderground v.1.15,2013-08-17 05:45:00,
2013-08-16 22:55:00,60.5,55.0,29.96,SE,145,0.0,0.0,82,0.00,,,0.00,Wunderground v.1.15,2013-08-17 05:55:00,
2013-08-16 23:00:00,60.0,54.8,29.97,East,101,0.0,0.0,83,0.00,,,0.00,Wunderground v.1.15,2013-08-17 06:00:00,
2013-08-16 23:05:00,59.6,54.4,29.97,East,101,0.0,0.0,83,0.00,,,0.00,Wunderground v.1.15,2013-08-17 06:05:00,
2013-08-16 23:15:00,59.2,54.7,29.97,ESE,104,0.0,0.0,85,0.00,,,0.00,Wunderground v.1.15,2013-08-17 06:15:00,
2013-08-16 23:20:00,59.0,54.5,29.97,ESE,104,0.0,0.0,85,0.00,,,0.00,Wunderground v.1.15,2013-08-17 06:20:00,
2013-08-16 23:25:00,58.8,54.3,29.97,ESE,104,0.0,0.0,85,0.00,,,0.00,Wunderground v.1.15,2013-08-17 06:25:00,
2013-08-16 23:30:00,58.7,54.2,29.97,ESE,104,0.0,0.0,85,0.00,,,0.00,Wunderground v.1.15,2013-08-17 06:30:00,
2013-08-16 23:35:00,58.6,54.1,29.97,ESE,104,0.0,0.0,85,0.00,,,0.00,Wunderground v.1.15,2013-08-17 06:35:00,
2013-08-16 23:45:00,58.4,53.9,29.97,ESE,104,0.0,0.0,85,0.00,,,0.00,Wunderground v.1.15,2013-08-17 06:45:00,
2013-08-16 23:50:00,58.3,53.8,29.97,ESE,104,0.0,0.0,85,0.00,,,0.00,Wunderground v.1.15,2013-08-17 06:50:00,
2013-08-16 23:55:00,58.2,53.7,29.97,ESE,104,0.0,0.0,85,0.00,,,0.00,Wunderground v.1.15,2013-08-17 06:55:00,